Location: Dompnac
(44.5644°N, 4.1026°E)
Time: 11:43:57
(UTC+00:00)

Cosmos 1025 Rocket - Pass Details

Date: 19 September 2020
Orbit: 595 x 617 km, 82.5° (Epoch: 29 October)

Event Time Altitude Azimuth Distance (km) Brightness Sun altitude
Rises 18:59:42 0° 354° (N) 2,887 6.8 -13.8°
Reaches altitude 10° 19:01:57 10° 359° (N) 1,981 5.9 -14.2°
Maximum altitude 19:06:17 59° 79° (E) 711 3.1 -14.9°
Enters shadow 19:10:02 14° 158° (SSE) 1,748 5.0 -15.5°
